FW6114 Weather Reports


time (UTC)temp
C
wind
direction
speed
KPH
gust
KPH
rain 1hr
cm
rain 24hr
cm
rain mn
cm
humidity
%
barometer
mb
20260506213023 8 265 0.0 4.8 0.00 0.00 0.00 72 1013.1
20260506211610 8 225 0.0 4.8 0.00 0.00 0.00 71 1013.1
20260506191551 8 360 0.0 0.0 0.00 0.03 0.00 72 1012.2
20260506190027 9 57 0.0 0.0 0.00 0.05 0.00 73 1012.1
20260506184521 10 57 0.0 0.0 0.00 0.05 0.00 66 1011.9
20260506183059 10 57 0.0 0.0 0.00 0.05 0.00 62 1011.8
20260506181535 11 65 0.0 4.8 0.00 0.05 0.00 60 1011.7
20260506180023 11 234 0.0 3.2 0.00 0.05 0.00 59 1011.6
20260506174519 11 306 0.0 1.6 0.00 0.05 0.00 59 1011.8
20260506173009 12 288 0.0 8.0 0.00 0.05 0.00 56 1011.9
20260506171505 13 101 1.6 9.7 0.00 0.05 0.00 53 1011.8
20260506170044 13 40 0.0 9.7 0.00 0.05 0.00 53 1011.8
20260506164519 13 132 0.0 11.3 0.00 0.05 0.00 52 1011.6
20260506163059 13 55 0.0 6.4 0.00 0.05 0.00 49 1011.5
20260506161527 13 44 0.0 6.4 0.00 0.05 0.00 51 1011.6
20260506160006 13 34 0.0 8.0 0.00 0.05 0.00 50 1011.7
20260506154547 12 56 0.0 0.0 0.00 0.05 0.00 57 1011.9
20260506153035 12 51 0.0 0.0 0.00 0.05 0.00 58 1011.9
20260506151528 12 119 0.0 1.6 0.00 0.05 0.00 56 1012.0
20260506150021 12 76 0.0 0.0 0.00 0.05 0.00 55 1011.9
20260506144516 13 98 0.0 0.0 0.00 0.05 0.00 56 1012.0
20260506143053 12 128 1.6 12.9 0.00 0.05 0.00 55 1012.1
20260506141604 12 124 0.0 4.8 0.00 0.05 0.00 52 1012.3
20260506140042 12 293 0.0 3.2 0.00 0.05 0.00 52 1012.4
20260506134538 13 143 0.0 9.7 0.00 0.05 0.00 49 1012.4
20260506133030 14 180 0.0 11.3 0.00 0.05 0.00 58 1012.5
20260506131523 13 44 0.0 6.4 0.00 0.05 0.00 55 1012.7
20260506130020 13 130 0.0 6.4 0.00 0.05 0.00 53 1012.7
20260506124549 13 170 0.0 6.4 0.00 0.05 0.00 47 1012.9
20260506123045 13 145 0.0 11.3 0.00 0.05 0.00 49 1012.8
20260506121514 12 55 0.0 1.6 0.00 0.05 0.00 57 1013.0
20260506120112 12 46 1.6 12.9 0.00 0.05 0.00 54 1013.1
20260506114545 12 77 0.0 4.8 0.00 0.05 0.00 56 1013.3
20260506113036 12 60 0.0 8.0 0.00 0.05 0.00 51 1013.4
20260506111528 11 115 0.0 14.5 0.00 0.05 0.00 55 1013.4
20260506110024 11 53 0.0 4.8 0.00 0.05 0.00 54 1013.5
20260506104559 11 167 0.0 11.3 0.00 0.05 0.00 56 1013.6
20260506103036 11 118 0.0 9.7 0.00 0.05 0.00 55 1013.5
20260506101512 11 28 0.0 12.9 0.00 0.05 0.00 54 1013.6
20260506100051 11 144 0.0 11.3 0.00 0.05 0.00 55 1013.7
20260506094533 11 121 0.0 9.7 0.00 0.05 0.00 55 1013.7
20260506093034 11 231 0.0 4.8 0.00 0.05 0.00 57 1013.5
20260506091512 10 105 1.6 11.3 0.00 0.05 0.00 57 1013.5
20260506090049 10 40 0.0 4.8 0.00 0.05 0.00 59 1013.5
20260506084541 10 115 0.0 0.0 0.00 0.05 0.00 61 1013.6
20260506083040 8 71 0.0 0.0 0.00 0.05 0.00 62 1013.6
20260506081525 8 115 0.0 0.0 0.00 0.05 0.00 68 1013.6
20260506073025 6 57 0.0 0.0 0.00 0.05 0.00 76 1013.5
20260506071522 5 57 0.0 0.0 0.00 0.05 0.00 86 1013.6
20260506070114 3 57 0.0 0.0 0.00 0.05 0.00 94 1013.7
20260506061552 0 360 0.0 0.0 0.00 0.05 0.00 94 1013.6
20260506044530 -1 350 0.0 0.0 0.00 0.05 0.00 92 1013.3
20260506043020 -1 350 0.0 0.0 0.00 0.05 0.00 92 1013.5
20260506041515 0 350 0.0 0.0 0.00 0.05 0.00 92 1013.4
20260506040014 0 350 0.0 0.0 0.00 0.05 0.00 93 1013.4
20260506034549 0 350 0.0 0.0 0.00 0.05 0.00 93 1013.5
20260506033019 0 350 0.0 0.0 0.00 0.05 0.00 93 1013.5
20260506031514 0 349 0.0 0.0 0.00 0.05 0.00 92 1013.4
20260506030114 0 350 0.0 0.0 0.00 0.05 0.00 92 1013.3
20260506024538 0 350 0.0 0.0 0.00 0.05 0.00 92 1013.4
20260506023033 0 350 0.0 0.0 0.00 0.05 0.00 92 1013.4
20260506021525 0 350 0.0 0.0 0.00 0.05 0.00 92 1013.4
20260506020021 0 349 0.0 0.0 0.00 0.05 0.00 92 1013.5
20260506014603 0 360 0.0 0.0 0.00 0.05 0.00 91 1013.4
20260506013040 0 360 0.0 0.0 0.00 0.05 0.00 91 1013.4
20260506011509 0 360 0.0 0.0 0.00 0.05 0.00 92 1013.5
20260506010054 0 360 0.0 0.0 0.00 0.05 0.00 91 1013.6
20260506004522 0 360 0.0 0.0 0.00 0.05 0.00 91 1013.7
20260506003101 0 360 0.0 0.0 0.00 0.05 0.00 92 1013.7
20260506001534 1 360 0.0 0.0 0.00 0.05 0.00 91 1013.7
20260506000007 1 360 0.0 0.0 0.00 0.05 0.00 91 1013.7
20260505234608 1 360 0.0 0.0 0.00 0.05 0.00 91 1013.7
20260505233020 1 360 0.0 0.0 0.00 0.05 0.00 90 1013.5
20260505231516 1 360 0.0 0.0 0.00 0.05 0.00 90 1013.4
20260505230014 1 360 0.0 0.0 0.00 0.05 0.00 91 1013.4
20260505224549 1 360 0.0 0.0 0.00 0.05 0.00 90 1013.4
20260505223025 2 360 0.0 0.0 0.00 0.05 0.00 90 1013.6
20260505221616 2 360 0.0 0.0 0.00 0.05 0.00 89 1013.7
20260505220034 2 360 0.0 1.6 0.00 0.05 0.05 90 1013.7
20260505214514 2 360 0.0 0.0 0.00 0.05 0.05 90 1013.7